RYR8JY EPKK-LEAL

Flight info

Callsign RYR8JY
Flight time 3h 5m
Altitude 36000
Route BABKO L856 KOPAT DCT MAREG DCT NURMI DCT DETSA/N0439F370 DCT NESTI DCT VOG DCT GEKBA DCT VAMTU UM984 PADKO UY38 VATIR DCT PIVUS DCT SULID DCT SISMO DCT AKAMU DCT ADX DCT OKITI DCT IBEBA DCT BAVER M603 GERVU
Aircraft B738/M-SDE2E3FGHIRWXY/LB1

Departure

Time 2026-05-04 16:11
Airport Kraków John Paul II International Airport (EPKK)

Arrival

Time 2026-05-04 19:16
Airport Alicante-Elche Miguel Hernández Airport (LEAL)
Time Latitude Longitude Altitude Speed Heading
2026-05-04 15:49 50.07505 19.80271 799 ft 0 kts 168°
2026-05-04 16:06 50.07498 19.80273 799 ft 2 kts 168°
2026-05-04 16:07 50.07466 19.80285 799 ft 5 kts 161°
2026-05-04 16:07 50.07533 19.80407 799 ft 9 kts 16°
2026-05-04 16:08 50.07603 19.80417 799 ft 11 kts 349°
2026-05-04 16:08 50.07825 19.80345 799 ft 10 kts 348°
2026-05-04 16:09 50.07963 19.80296 799 ft 10 kts 347°
2026-05-04 16:09 50.08016 19.80223 799 ft 0 kts 257°
2026-05-04 16:10 50.08009 19.80177 799 ft 23 kts 257°
2026-05-04 16:11 50.07523 19.76617 1200 ft 162 kts 260°
2026-05-04 16:11 50.07311 19.74813 1755 ft 178 kts 260°
2026-05-04 16:12 50.06447 19.69137 3904 ft 181 kts 256°
2026-05-04 16:12 50.03628 19.64760 4907 ft 238 kts 185°
2026-05-04 16:13 50.00077 19.65591 5920 ft 269 kts 171°
2026-05-04 16:13 49.96423 19.66873 7594 ft 271 kts 171°
2026-05-04 16:14 49.92691 19.68171 8998 ft 279 kts 171°
2026-05-04 16:14 49.88859 19.69423 10385 ft 287 kts 178°
2026-05-04 16:15 49.82891 19.65754 10967 ft 339 kts 211°
2026-05-04 16:16 49.78732 19.62039 12242 ft 346 kts 211°
2026-05-04 16:16 49.72359 19.56483 14245 ft 356 kts 210°
2026-05-04 16:17 49.67980 19.52716 15359 ft 363 kts 210°
2026-05-04 16:18 49.61284 19.46900 17104 ft 371 kts 215°
2026-05-04 16:18 49.59362 19.44238 17621 ft 373 kts 227°
2026-05-04 16:19 49.54024 19.35273 19146 ft 383 kts 227°
2026-05-04 16:19 49.50399 19.29312 20194 ft 386 kts 227°
2026-05-04 16:20 49.44777 19.20176 21445 ft 397 kts 227°
2026-05-04 16:20 49.40940 19.13970 22241 ft 404 kts 227°
2026-05-04 16:21 49.35084 19.04527 23589 ft 410 kts 227°
2026-05-04 16:22 49.31182 18.98252 24162 ft 418 kts 227°
2026-05-04 16:22 49.25106 18.88513 25079 ft 426 kts 228°
2026-05-04 16:23 49.18896 18.78598 25972 ft 435 kts 227°
2026-05-04 16:24 49.10478 18.65176 27169 ft 442 kts 229°
2026-05-04 16:25 49.06589 18.57976 27751 ft 445 kts 232°
2026-05-04 16:26 48.98822 18.43159 28905 ft 450 kts 232°
2026-05-04 16:26 48.92961 18.32129 30054 ft 447 kts 232°
2026-05-04 16:27 48.89081 18.24864 30778 ft 442 kts 232°
2026-05-04 16:28 48.83887 18.15166 31470 ft 442 kts 233°
2026-05-04 16:28 48.78065 18.04343 32272 ft 440 kts 233°
2026-05-04 16:29 48.70369 17.90101 33360 ft 437 kts 232°
2026-05-04 16:30 48.64592 17.79453 34097 ft 436 kts 232°
2026-05-04 16:31 48.60763 17.72423 34452 ft 436 kts 233°
2026-05-04 16:31 48.54972 17.61825 34975 ft 436 kts 232°
2026-05-04 16:32 48.49191 17.51287 35601 ft 434 kts 232°
2026-05-04 16:33 48.45335 17.44279 35924 ft 433 kts 232°
2026-05-04 16:33 48.41462 17.37260 35965 ft 436 kts 232°
2026-05-04 16:34 48.35686 17.26827 35972 ft 432 kts 232°
2026-05-04 16:35 48.24196 17.06183 35959 ft 428 kts 232°
2026-05-04 16:36 48.18809 16.95706 35961 ft 426 kts 244°
2026-05-04 16:37 48.15603 16.83374 35954 ft 425 kts 252°
2026-05-04 16:38 48.11547 16.66720 35943 ft 428 kts 251°
2026-05-04 16:39 48.06319 16.45749 35937 ft 431 kts 251°
2026-05-04 16:40 48.02097 16.28967 35953 ft 431 kts 251°
2026-05-04 16:41 47.96843 16.08251 35948 ft 426 kts 251°
2026-05-04 16:43 47.91618 15.87833 35959 ft 422 kts 251°
2026-05-04 16:43 47.88482 15.75662 35959 ft 420 kts 250°
2026-05-04 16:45 47.82170 15.51361 35965 ft 418 kts 250°
2026-05-04 16:46 47.76883 15.31204 35962 ft 421 kts 250°
2026-05-04 16:47 47.72594 15.14981 35958 ft 422 kts 249°
2026-05-04 16:48 47.68318 14.98906 35960 ft 424 kts 249°
2026-05-04 16:49 47.63653 14.82825 35947 ft 425 kts 246°
2026-05-04 16:50 47.58625 14.66999 35952 ft 425 kts 246°
2026-05-04 16:51 47.54884 14.55095 35966 ft 425 kts 246°
2026-05-04 16:52 47.49890 14.39249 35950 ft 422 kts 246°
2026-05-04 16:53 47.46187 14.27567 35961 ft 417 kts 245°
2026-05-04 16:54 47.41177 14.11839 35988 ft 428 kts 245°
2026-05-04 16:55 47.33576 13.88172 35966 ft 426 kts 245°
2026-05-04 16:56 47.27268 13.68694 35976 ft 422 kts 245°
2026-05-04 16:57 47.23463 13.57018 35997 ft 421 kts 244°
2026-05-04 16:58 47.18371 13.41472 35980 ft 422 kts 244°
2026-05-04 17:00 47.10676 13.18158 36006 ft 424 kts 244°
2026-05-04 17:01 47.04355 12.99163 36017 ft 423 kts 244°
2026-05-04 17:02 46.99169 12.83678 36028 ft 423 kts 244°
2026-05-04 17:03 46.95261 12.72074 36031 ft 423 kts 243°
2026-05-04 17:03 46.91361 12.60541 36045 ft 423 kts 243°
2026-05-04 17:04 46.86126 12.45140 36078 ft 422 kts 243°
2026-05-04 17:05 46.80874 12.29783 36112 ft 421 kts 242°
2026-05-04 17:06 46.75789 12.19283 36385 ft 423 kts 232°
2026-05-04 17:07 46.72207 12.12563 36702 ft 421 kts 233°
2026-05-04 17:07 46.70994 12.10275 36782 ft 422 kts 233°
2026-05-04 17:07 46.68629 12.05801 36979 ft 420 kts 233°
2026-05-04 17:07 46.66847 12.02421 37031 ft 420 kts 233°
2026-05-04 17:08 46.61570 11.92407 37038 ft 424 kts 233°
2026-05-04 17:09 46.57967 11.85588 37053 ft 426 kts 233°
2026-05-04 17:09 46.54346 11.78752 37050 ft 426 kts 233°
2026-05-04 17:10 46.45305 11.61750 37049 ft 425 kts 233°
2026-05-04 17:11 46.41681 11.54968 37018 ft 425 kts 233°
2026-05-04 17:12 46.36273 11.44887 37087 ft 422 kts 234°
2026-05-04 17:13 46.27909 11.29352 37093 ft 418 kts 233°
2026-05-04 17:14 46.20754 11.16132 37187 ft 416 kts 233°
2026-05-04 17:15 46.15414 11.06303 37181 ft 416 kts 233°
2026-05-04 17:16 46.08347 10.93350 37185 ft 417 kts 233°
2026-05-04 17:17 46.01137 10.80198 37150 ft 419 kts 233°
2026-05-04 17:18 45.93918 10.67090 37155 ft 420 kts 233°
2026-05-04 17:19 45.86648 10.53949 37126 ft 418 kts 233°
2026-05-04 17:20 45.79430 10.40967 37107 ft 413 kts 233°
2026-05-04 17:20 45.74032 10.31376 37108 ft 410 kts 233°
2026-05-04 17:21 45.66853 10.18671 37074 ft 412 kts 232°
2026-05-04 17:22 45.63268 10.12342 37059 ft 413 kts 232°
2026-05-04 17:23 45.56096 9.99727 37058 ft 416 kts 232°
2026-05-04 17:24 45.50625 9.90141 37063 ft 417 kts 232°
2026-05-04 17:25 45.43302 9.77359 37121 ft 417 kts 232°
2026-05-04 17:26 45.35972 9.64624 37114 ft 414 kts 232°
2026-05-04 17:27 45.26902 9.48944 37088 ft 408 kts 232°
2026-05-04 17:28 45.19697 9.36549 37053 ft 405 kts 232°
2026-05-04 17:29 45.08955 9.18170 37068 ft 404 kts 232°
2026-05-04 17:31 44.99965 9.02875 37064 ft 406 kts 232°
2026-05-04 17:32 44.91085 8.87594 37068 ft 407 kts 233°
2026-05-04 17:33 44.83985 8.75200 37084 ft 407 kts 233°
2026-05-04 17:34 44.76849 8.62832 37068 ft 406 kts 232°
2026-05-04 17:35 44.67961 8.47506 37075 ft 403 kts 232°
2026-05-04 17:36 44.64436 8.41450 37081 ft 402 kts 232°
2026-05-04 17:36 44.60901 8.35388 37084 ft 401 kts 232°
2026-05-04 17:37 44.57359 8.29329 37085 ft 401 kts 232°
2026-05-04 17:37 44.53831 8.23305 37083 ft 400 kts 232°
2026-05-04 17:38 44.50297 8.17286 37088 ft 400 kts 232°
2026-05-04 17:38 44.46763 8.11278 37092 ft 399 kts 232°
2026-05-04 17:39 44.41487 8.02331 37098 ft 398 kts 232°
2026-05-04 17:39 44.38043 7.96505 37117 ft 398 kts 232°
2026-05-04 17:40 44.34506 7.90535 37106 ft 399 kts 232°
2026-05-04 17:40 44.30966 7.84568 37106 ft 399 kts 231°
2026-05-04 17:41 44.27411 7.78605 37096 ft 399 kts 230°
2026-05-04 17:41 44.23370 7.73255 37107 ft 401 kts 223°
2026-05-04 17:42 44.19145 7.68133 37101 ft 404 kts 224°
2026-05-04 17:42 44.14967 7.62953 37089 ft 404 kts 225°
2026-05-04 17:43 44.11190 7.57228 37096 ft 401 kts 231°
2026-05-04 17:43 44.07573 7.51345 37087 ft 400 kts 231°
2026-05-04 17:44 44.03940 7.45487 37068 ft 398 kts 230°
2026-05-04 17:44 44.00313 7.39692 37073 ft 398 kts 230°
2026-05-04 17:45 43.96674 7.33906 37057 ft 398 kts 231°
2026-05-04 17:45 43.93041 7.28138 37069 ft 397 kts 231°
2026-05-04 17:46 43.89419 7.22407 37046 ft 396 kts 231°
2026-05-04 17:46 43.85798 7.16693 37051 ft 393 kts 230°
2026-05-04 17:47 43.82185 7.10993 37057 ft 393 kts 230°
2026-05-04 17:47 43.78576 7.05310 37059 ft 391 kts 230°
2026-05-04 17:48 43.75048 6.99768 37063 ft 391 kts 230°
2026-05-04 17:48 43.71848 6.93798 37038 ft 393 kts 242°
2026-05-04 17:49 43.69688 6.86927 37047 ft 393 kts 248°
2026-05-04 17:49 43.67651 6.79921 37063 ft 392 kts 248°
2026-05-04 17:50 43.65597 6.72925 37049 ft 392 kts 247°
2026-05-04 17:50 43.63538 6.65965 37038 ft 392 kts 247°
2026-05-04 17:51 43.61470 6.59002 37055 ft 391 kts 247°
2026-05-04 17:51 43.59413 6.52098 37048 ft 391 kts 247°
2026-05-04 17:52 43.57340 6.45161 37061 ft 391 kts 247°
2026-05-04 17:52 43.55258 6.38207 37049 ft 392 kts 247°
2026-05-04 17:53 43.53165 6.31240 37047 ft 392 kts 247°
2026-05-04 17:53 43.51073 6.24291 37059 ft 393 kts 247°
2026-05-04 17:54 43.48964 6.17303 37033 ft 395 kts 246°
2026-05-04 17:54 43.46847 6.10308 37023 ft 395 kts 246°
2026-05-04 17:55 43.44732 6.03338 37037 ft 394 kts 246°
2026-05-04 17:55 43.42673 5.96565 37031 ft 394 kts 246°
2026-05-04 17:56 43.40555 5.89609 37019 ft 394 kts 246°
2026-05-04 17:56 43.38428 5.82645 37020 ft 394 kts 246°
2026-05-04 17:57 43.36298 5.75689 37004 ft 395 kts 246°
2026-05-04 17:57 43.34164 5.68737 37025 ft 395 kts 246°
2026-05-04 17:58 43.32039 5.61832 37010 ft 395 kts 246°
2026-05-04 17:58 43.29895 5.54884 36978 ft 395 kts 246°
2026-05-04 17:59 43.27751 5.47951 36969 ft 394 kts 246°
2026-05-04 18:00 43.24519 5.37618 36980 ft 393 kts 242°
2026-05-04 18:00 43.21434 5.31473 36993 ft 392 kts 229°
2026-05-04 18:01 43.17402 5.26412 36973 ft 392 kts 222°
2026-05-04 18:01 43.13258 5.21614 36971 ft 392 kts 222°
2026-05-04 18:02 43.07029 5.14380 36971 ft 391 kts 222°
2026-05-04 18:02 43.03585 5.10370 36971 ft 390 kts 222°
2026-05-04 18:03 42.99466 5.05577 36974 ft 390 kts 222°
2026-05-04 18:03 42.95328 5.00769 36972 ft 390 kts 222°
2026-05-04 18:04 42.91288 4.96084 36963 ft 390 kts 222°
2026-05-04 18:05 42.85103 4.88927 36978 ft 391 kts 222°
2026-05-04 18:05 42.80960 4.84144 36952 ft 391 kts 222°
2026-05-04 18:06 42.74729 4.76966 36954 ft 391 kts 222°
2026-05-04 18:06 42.70583 4.72201 36944 ft 391 kts 222°
2026-05-04 18:07 42.66425 4.67431 36944 ft 391 kts 222°
2026-05-04 18:07 42.62264 4.62667 36956 ft 391 kts 221°
2026-05-04 18:08 42.58105 4.57913 36945 ft 391 kts 221°
2026-05-04 18:08 42.53970 4.53195 36946 ft 391 kts 221°
2026-05-04 18:09 42.45628 4.43702 36939 ft 392 kts 221°
2026-05-04 18:10 42.41446 4.38956 36945 ft 392 kts 221°
2026-05-04 18:10 42.37256 4.34209 36934 ft 392 kts 221°
2026-05-04 18:11 42.33090 4.29498 36927 ft 393 kts 221°
2026-05-04 18:11 42.28897 4.24764 36923 ft 393 kts 221°
2026-05-04 18:12 42.24696 4.20029 36919 ft 393 kts 221°
2026-05-04 18:12 42.20495 4.15302 36931 ft 393 kts 221°
2026-05-04 18:13 42.16164 4.10767 36915 ft 396 kts 213°
2026-05-04 18:14 42.08876 4.05461 36921 ft 397 kts 212°
2026-05-04 18:14 42.04054 4.01938 36925 ft 397 kts 212°
2026-05-04 18:15 41.94455 3.94904 36919 ft 397 kts 212°
2026-05-04 18:16 41.89569 3.91411 36913 ft 398 kts 210°
2026-05-04 18:16 41.84615 3.88102 36911 ft 398 kts 210°
2026-05-04 18:17 41.77208 3.83174 36922 ft 397 kts 210°
2026-05-04 18:18 41.69787 3.78208 36920 ft 398 kts 210°
2026-05-04 18:18 41.64841 3.74899 36909 ft 397 kts 210°
2026-05-04 18:19 41.57430 3.69951 36917 ft 396 kts 210°
2026-05-04 18:19 41.52486 3.66658 36916 ft 396 kts 210°
2026-05-04 18:20 41.47554 3.63379 36914 ft 395 kts 210°
2026-05-04 18:20 41.42654 3.60125 36918 ft 395 kts 210°
2026-05-04 18:21 41.37739 3.56868 36923 ft 394 kts 210°
2026-05-04 18:21 41.32830 3.53620 36923 ft 394 kts 210°
2026-05-04 18:22 41.27909 3.50368 36911 ft 394 kts 210°
2026-05-04 18:22 41.22997 3.47128 36925 ft 394 kts 210°
2026-05-04 18:23 41.18077 3.43917 36919 ft 395 kts 207°
2026-05-04 18:23 41.12934 3.41215 36919 ft 398 kts 206°
2026-05-04 18:24 41.07770 3.38587 36898 ft 398 kts 206°
2026-05-04 18:24 41.02635 3.35958 36912 ft 398 kts 206°
2026-05-04 18:25 40.97482 3.33310 36926 ft 398 kts 206°
2026-05-04 18:25 40.92297 3.30648 36924 ft 399 kts 206°
2026-05-04 18:26 40.87120 3.27990 36926 ft 400 kts 206°
2026-05-04 18:26 40.81930 3.25331 36924 ft 400 kts 206°
2026-05-04 18:27 40.76833 3.22456 36911 ft 395 kts 216°
2026-05-04 18:27 40.72599 3.18034 36916 ft 389 kts 229°
2026-05-04 18:28 40.68997 3.12714 36924 ft 389 kts 230°
2026-05-04 18:28 40.65410 3.07372 36925 ft 389 kts 230°
2026-05-04 18:29 40.61807 3.02039 36927 ft 390 kts 230°
2026-05-04 18:29 40.58268 2.96827 36924 ft 390 kts 230°
2026-05-04 18:30 40.52846 2.88872 36923 ft 391 kts 230°
2026-05-04 18:31 40.49210 2.83551 36924 ft 391 kts 230°
2026-05-04 18:31 40.45573 2.78236 36922 ft 391 kts 230°
2026-05-04 18:32 40.41929 2.72921 36917 ft 391 kts 230°
2026-05-04 18:32 40.38313 2.67656 36922 ft 390 kts 230°
2026-05-04 18:33 40.34672 2.62364 36930 ft 390 kts 230°
2026-05-04 18:33 40.31032 2.57082 36923 ft 390 kts 230°
2026-05-04 18:34 40.27383 2.51796 36924 ft 390 kts 230°
2026-05-04 18:34 40.23744 2.46535 36923 ft 389 kts 230°
2026-05-04 18:35 40.20130 2.41318 36918 ft 388 kts 230°
2026-05-04 18:35 40.16495 2.36080 36929 ft 388 kts 230°
2026-05-04 18:36 40.12858 2.30848 36923 ft 388 kts 230°
2026-05-04 18:36 40.09224 2.25629 36927 ft 388 kts 230°
2026-05-04 18:37 40.05608 2.20444 36928 ft 389 kts 230°
2026-05-04 18:37 40.01962 2.15227 36926 ft 389 kts 230°
2026-05-04 18:38 39.98318 2.10019 36919 ft 389 kts 230°
2026-05-04 18:38 39.94668 2.04814 36923 ft 389 kts 230°
2026-05-04 18:39 39.91075 1.99698 36925 ft 389 kts 230°
2026-05-04 18:39 39.87414 1.94494 36927 ft 389 kts 230°
2026-05-04 18:40 39.83780 1.89337 36946 ft 390 kts 230°
2026-05-04 18:40 39.80109 1.84135 36934 ft 390 kts 230°
2026-05-04 18:41 39.76441 1.78948 36923 ft 389 kts 230°
2026-05-04 18:41 39.72764 1.73758 36919 ft 390 kts 230°
2026-05-04 18:42 39.69092 1.68581 36926 ft 389 kts 230°
2026-05-04 18:42 39.65421 1.63416 36923 ft 388 kts 230°
2026-05-04 18:43 39.61780 1.58301 36925 ft 388 kts 230°
2026-05-04 18:43 39.58124 1.53174 36925 ft 387 kts 230°
2026-05-04 18:44 39.54460 1.48045 36924 ft 387 kts 230°
2026-05-04 18:44 39.50797 1.42925 36925 ft 386 kts 229°
2026-05-04 18:45 39.47167 1.37869 36925 ft 386 kts 230°
2026-05-04 18:45 39.43507 1.32765 36922 ft 386 kts 230°
2026-05-04 18:46 39.39833 1.27649 36566 ft 392 kts 230°
2026-05-04 18:46 39.37979 1.25073 36318 ft 391 kts 229°
2026-05-04 18:46 39.36135 1.22514 36065 ft 387 kts 229°
2026-05-04 18:46 39.34310 1.19985 35775 ft 383 kts 230°
2026-05-04 18:47 39.32504 1.17484 35532 ft 377 kts 230°
2026-05-04 18:47 39.30724 1.15021 35281 ft 372 kts 230°
2026-05-04 18:47 39.28982 1.12612 35070 ft 373 kts 230°
2026-05-04 18:47 39.27180 1.10118 34839 ft 378 kts 229°
2026-05-04 18:48 39.25398 1.07654 34608 ft 382 kts 229°
2026-05-04 18:48 39.24172 1.05961 34449 ft 382 kts 229°
2026-05-04 18:48 39.21776 1.02657 33874 ft 380 kts 229°
2026-05-04 18:48 39.19971 1.00170 33274 ft 379 kts 229°
2026-05-04 18:49 39.18242 0.97790 32631 ft 379 kts 229°
2026-05-04 18:49 39.17044 0.96143 32256 ft 378 kts 229°
2026-05-04 18:49 39.15260 0.93691 31812 ft 373 kts 229°
2026-05-04 18:49 39.13492 0.91262 31349 ft 369 kts 229°
2026-05-04 18:50 39.11744 0.88864 30872 ft 364 kts 229°
2026-05-04 18:50 39.10012 0.86487 30467 ft 365 kts 229°
2026-05-04 18:50 39.08269 0.84096 30037 ft 369 kts 229°
2026-05-04 18:50 39.06517 0.81695 29514 ft 366 kts 229°
2026-05-04 18:51 39.04781 0.79320 29047 ft 361 kts 229°
2026-05-04 18:51 39.03072 0.76985 28584 ft 356 kts 229°
2026-05-04 18:51 39.01386 0.74681 28149 ft 352 kts 229°
2026-05-04 18:51 38.99719 0.72404 27678 ft 349 kts 229°
2026-05-04 18:52 38.98062 0.70143 27232 ft 346 kts 229°
2026-05-04 18:52 38.96425 0.67910 26804 ft 350 kts 229°
2026-05-04 18:52 38.94728 0.65595 26350 ft 352 kts 229°
2026-05-04 18:52 38.93058 0.63320 25898 ft 348 kts 229°
2026-05-04 18:53 38.91421 0.61094 25468 ft 345 kts 229°
2026-05-04 18:53 38.89781 0.58864 25031 ft 342 kts 229°
2026-05-04 18:53 38.88143 0.56638 24572 ft 339 kts 229°
2026-05-04 18:53 38.86527 0.54442 24155 ft 336 kts 229°
2026-05-04 18:54 38.84928 0.52273 23738 ft 334 kts 229°
2026-05-04 18:54 38.83334 0.50106 23244 ft 332 kts 230°
2026-05-04 18:54 38.82043 0.47732 22828 ft 327 kts 243°
2026-05-04 18:54 38.81236 0.45042 22605 ft 321 kts 252°
2026-05-04 18:55 38.80633 0.42275 22358 ft 326 kts 253°
2026-05-04 18:55 38.79467 0.36530 21850 ft 336 kts 254°
2026-05-04 18:55 38.78878 0.33635 21579 ft 334 kts 253°
2026-05-04 18:56 38.78287 0.30762 21323 ft 332 kts 253°
2026-05-04 18:56 38.77692 0.27904 21070 ft 330 kts 253°
2026-05-04 18:56 38.77097 0.25063 20820 ft 329 kts 253°
2026-05-04 18:56 38.76502 0.22238 20572 ft 328 kts 253°
2026-05-04 18:57 38.75911 0.19448 20324 ft 327 kts 253°
2026-05-04 18:57 38.75316 0.16642 20081 ft 327 kts 253°
2026-05-04 18:57 38.74720 0.13830 19835 ft 327 kts 253°
2026-05-04 18:57 38.74123 0.11023 19591 ft 326 kts 253°
2026-05-04 18:58 38.73526 0.08220 19346 ft 326 kts 253°
2026-05-04 18:58 38.72927 0.05409 19108 ft 326 kts 253°
2026-05-04 18:58 38.72329 0.02608 18852 ft 325 kts 253°
2026-05-04 18:58 38.71749 -0.00094 18614 ft 325 kts 253°
2026-05-04 18:59 38.71162 -0.02806 18412 ft 323 kts 254°
2026-05-04 18:59 38.70569 -0.05594 18118 ft 324 kts 253°
2026-05-04 18:59 38.69976 -0.08369 17864 ft 323 kts 253°
2026-05-04 18:59 38.69381 -0.11143 17609 ft 323 kts 254°
2026-05-04 19:00 38.68783 -0.13920 17342 ft 322 kts 254°
2026-05-04 19:00 38.68242 -0.16682 17189 ft 316 kts 255°
2026-05-04 19:00 38.67669 -0.19413 16890 ft 319 kts 253°
2026-05-04 19:00 38.67055 -0.22134 16609 ft 317 kts 253°
2026-05-04 19:01 38.66446 -0.24848 16337 ft 316 kts 253°
2026-05-04 19:01 38.65849 -0.27548 16123 ft 313 kts 254°
2026-05-04 19:01 38.65270 -0.30192 15879 ft 313 kts 253°
2026-05-04 19:01 38.64686 -0.32874 15649 ft 313 kts 253°
2026-05-04 19:02 38.64101 -0.35560 15416 ft 313 kts 253°
2026-05-04 19:02 38.63517 -0.38242 15173 ft 313 kts 254°
2026-05-04 19:02 38.62932 -0.40927 14939 ft 313 kts 254°
2026-05-04 19:02 38.62348 -0.43603 14705 ft 312 kts 254°
2026-05-04 19:03 38.61764 -0.46274 14477 ft 312 kts 254°
2026-05-04 19:03 38.61179 -0.48948 14234 ft 312 kts 254°
2026-05-04 19:03 38.60595 -0.51617 13994 ft 312 kts 254°
2026-05-04 19:03 38.60012 -0.54279 13751 ft 311 kts 254°
2026-05-04 19:04 38.59428 -0.56941 13504 ft 311 kts 254°
2026-05-04 19:04 38.58845 -0.59597 13255 ft 310 kts 254°
2026-05-04 19:04 38.58272 -0.62200 13004 ft 305 kts 254°
2026-05-04 19:04 38.57696 -0.64819 12758 ft 298 kts 254°
2026-05-04 19:05 38.57142 -0.67337 12532 ft 291 kts 254°
2026-05-04 19:05 38.56607 -0.69760 12387 ft 282 kts 254°
2026-05-04 19:05 38.56086 -0.72124 12286 ft 272 kts 254°
2026-05-04 19:05 38.55577 -0.74430 12019 ft 269 kts 254°
2026-05-04 19:06 38.55067 -0.76731 11724 ft 268 kts 255°
2026-05-04 19:06 38.54573 -0.78957 11635 ft 254 kts 255°
2026-05-04 19:06 38.54101 -0.81081 11538 ft 241 kts 255°
2026-05-04 19:06 38.53528 -0.83044 11251 ft 236 kts 240°
2026-05-04 19:07 38.52469 -0.84656 10826 ft 239 kts 226°
2026-05-04 19:07 38.51201 -0.86058 10385 ft 241 kts 224°
2026-05-04 19:07 38.49958 -0.87457 9992 ft 241 kts 225°
2026-05-04 19:07 38.48696 -0.88877 9573 ft 242 kts 224°
2026-05-04 19:08 38.47394 -0.90244 9173 ft 241 kts 221°
2026-05-04 19:08 38.46061 -0.91527 8792 ft 240 kts 219°
2026-05-04 19:08 38.44686 -0.92752 8382 ft 240 kts 217°
2026-05-04 19:08 38.43268 -0.93879 8009 ft 240 kts 214°
2026-05-04 19:09 38.41810 -0.94895 7642 ft 239 kts 211°
2026-05-04 19:09 38.40313 -0.95778 7241 ft 240 kts 208°
2026-05-04 19:09 38.38780 -0.96575 6893 ft 239 kts 206°
2026-05-04 19:09 38.37215 -0.97344 6531 ft 239 kts 205°
2026-05-04 19:10 38.35572 -0.97677 6148 ft 248 kts 172°
2026-05-04 19:10 38.34059 -0.96616 5786 ft 256 kts 132°
2026-05-04 19:10 38.33357 -0.94566 5431 ft 255 kts 98°
2026-05-04 19:10 38.33139 -0.92342 5103 ft 251 kts 98°
2026-05-04 19:11 38.32890 -0.90134 4672 ft 252 kts 99°
2026-05-04 19:11 38.32622 -0.87959 4393 ft 245 kts 100°
2026-05-04 19:11 38.32343 -0.85823 4168 ft 244 kts 100°
2026-05-04 19:11 38.32065 -0.83720 3920 ft 244 kts 101°
2026-05-04 19:12 38.31785 -0.81601 3715 ft 241 kts 100°
2026-05-04 19:12 38.31250 -0.77534 3264 ft 227 kts 102°
2026-05-04 19:12 38.30975 -0.75568 2960 ft 223 kts 101°
2026-05-04 19:13 38.30703 -0.73646 2672 ft 218 kts 101°
2026-05-04 19:13 38.30439 -0.71768 2376 ft 211 kts 101°
2026-05-04 19:13 38.30188 -0.69981 2106 ft 201 kts 101°
2026-05-04 19:13 38.29949 -0.68266 1850 ft 191 kts 100°
2026-05-04 19:14 38.29722 -0.66642 1611 ft 182 kts 99°
2026-05-04 19:14 38.29508 -0.65108 1391 ft 169 kts 100°
2026-05-04 19:14 38.29308 -0.63673 1161 ft 164 kts 100°
2026-05-04 19:14 38.29113 -0.62275 950 ft 159 kts 100°
2026-05-04 19:15 38.28924 -0.60919 745 ft 156 kts 99°
2026-05-04 19:15 38.28735 -0.59562 542 ft 156 kts 99°
2026-05-04 19:15 38.28556 -0.58199 310 ft 158 kts 98°
2026-05-04 19:15 38.28355 -0.56794 127 ft 156 kts 99°
2026-05-04 19:16 38.28201 -0.55679 99 ft 102 kts 100°
2026-05-04 19:16 38.28112 -0.55049 80 ft 47 kts 100°
2026-05-04 19:16 38.28066 -0.54720 61 ft 8 kts 100°
2026-05-04 19:16 38.28056 -0.54650 68 ft 8 kts 100°
2026-05-04 19:17 38.28045 -0.54570 63 ft 11 kts 99°
2026-05-04 19:17 38.28046 -0.54487 64 ft 7 kts 63°
2026-05-04 19:17 38.28080 -0.54464 64 ft 4 kts 12°
2026-05-04 19:17 38.28110 -0.54457 61 ft 4 kts 11°
2026-05-04 19:18 38.28143 -0.54449 62 ft 5 kts 11°
2026-05-04 19:18 38.28184 -0.54448 59 ft 6 kts 342°
2026-05-04 19:18 38.28209 -0.54491 58 ft 6 kts 283°
2026-05-04 19:18 38.28217 -0.54547 62 ft 7 kts 281°
2026-05-04 19:19 38.28229 -0.54630 65 ft 12 kts 278°
2026-05-04 19:19 38.28246 -0.54755 67 ft 17 kts 280°
2026-05-04 19:19 38.28268 -0.54911 71 ft 18 kts 280°
2026-05-04 19:19 38.28289 -0.55063 82 ft 17 kts 280°
2026-05-04 19:20 38.28306 -0.55176 85 ft 9 kts 288°
2026-05-04 19:20 38.28352 -0.55206 87 ft 9 kts 23°
2026-05-04 19:20 38.28392 -0.55152 87 ft 8 kts 51°
2026-05-04 19:20 38.28419 -0.55089 87 ft 8 kts 74°
2026-05-04 19:21 38.28422 -0.55021 88 ft 7 kts 83°
2026-05-04 19:21 38.28445 -0.54985 88 ft 5 kts 24°
2026-05-04 19:21 38.28478 -0.54978 90 ft 5 kts
2026-05-04 19:21 38.28510 -0.54972 87 ft 4 kts
2026-05-04 19:22 38.28536 -0.54987 88 ft 4 kts 317°
2026-05-04 19:22 38.28553 -0.55017 88 ft 4 kts 304°
2026-05-04 19:22 38.28565 -0.55040 88 ft 2 kts 304°
2026-05-04 19:22 38.28566 -0.55043 87 ft 0 kts 304°